Theta_e
317 317 317 318 318 318 318 318 317 317 317 317 316 316 316 316 317 316 317 317 318 317 318 319 319 319 319 319 319 319 319 314 311 308 307 310 317 320 321 323 322 325 325 320 318 315 314 313 312 310 307 306 306 305 309 304 305 303 296 293 292 294 296 302 305 307 312 314 316 318 320 319 316 321 324 328 325 325 325 324 327 330 329 330 332 334 335 336
316 317 317 317 318 318 318 318 317 317 317 316 316 316 316 316 316 317 318 318 318 317 317 318 318 319 319 319 319 319 316 313 308 308 307 317 321 322 322 323 324 325 325 319 316 315 312 310 311 309 307 304 310 304 306 300 306 298 295 294 292 301 300 305 309 312 313 314 316 319 320 320 318 320 322 320 318 321 321 323 326 325 328 331 332 333 333 334
316 316 317 317 317 317 318 318 318 317 317 317 316 316 316 316 316 316 317 317 317 317 317 317 317 318 318 318 318 319 315 309 308 305 311 323 325 325 323 324 324 325 321 316 316 317 313 311 314 312 311 303 306 301 303 300 304 300 297 293 295 306 304 311 314 314 316 318 317 318 320 320 320 321 324 318 317 320 318 319 323 323 324 328 330 331 331 332
315 315 316 316 317 317 317 317 317 317 316 316 317 316 316 316 316 316 317 317 317 317 318 318 318 318 318 318 319 317 312 307 303 310 316 326 330 329 325 324 325 325 323 319 317 315 314 312 313 313 309 303 302 304 299 301 300 301 298 294 301 308 303 307 316 317 319 321 318 319 319 318 319 321 321 319 315 316 320 324 323 323 325 327 330 330 331 330
315 315 315 316 316 316 317 317 317 316 316 316 316 316 316 316 317 317 317 318 317 317 318 318 317 318 318 318 318 315 308 300 308 315 318 333 333 332 327 325 325 322 322 320 318 315 312 311 311 312 305 299 301 300 300 304 308 305 300 303 304 304 308 315 318 317 317 320 319 317 316 315 322 322 319 317 312 312 318 324 327 327 328 328 328 329 330 329
315 315 315 315 316 316 316 316 317 316 316 315 316 316 316 316 316 316 316 317 317 317 317 317 318 318 318 319 316 312 307 291 309 312 328 333 333 330 328 326 326 324 322 318 314 312 311 312 312 305 301 300 298 296 301 312 309 305 305 308 308 308 308 316 319 317 319 318 316 315 317 320 319 318 320 319 315 317 324 327 328 329 330 330 330 329 328 328
314 315 315 315 316 316 316 316 316 316 316 316 315 315 315 316 316 316 316 316 317 316 317 317 318 318 318 319 314 310 304 306 313 317 327 335 332 329 329 328 328 322 319 314 311 309 311 313 308 304 305 301 303 303 308 309 307 306 306 309 307 310 311 316 315 317 317 317 317 319 322 319 318 314 319 319 321 323 326 329 329 329 330 330 328 328 327 328
314 314 314 315 315 315 316 316 316 316 317 316 315 315 315 316 316 316 316 316 316 317 317 317 317 318 318 313 308 305 305 305 314 319 332 334 331 330 329 324 323 320 316 311 310 311 311 309 304 310 305 301 307 307 309 307 308 307 307 311 312 313 315 316 315 318 319 318 320 321 318 317 319 317 319 318 322 325 327 328 328 329 328 328 327 327 327 327
314 314 314 315 315 315 315 315 316 316 316 316 316 316 316 316 315 316 315 316 316 316 317 317 317 318 319 313 307 303 305 315 320 324 322 324 325 324 322 318 319 316 312 311 312 310 312 308 308 308 301 306 308 305 308 310 303 315 313 314 315 315 317 318 317 318 318 320 321 318 316 318 320 322 317 319 323 326 327 327 327 327 326 326 326 326 326 326
313 314 314 314 315 315 315 315 315 316 316 316 317 316 316 316 315 315 315 315 316 316 317 317 317 319 313 308 307 300 308 321 322 322 321 321 319 318 317 317 316 313 310 310 310 310 312 311 309 310 312 309 310 304 309 309 304 317 313 313 313 314 315 317 316 317 319 319 320 316 315 316 319 316 308 320 324 326 326 325 326 325 324 325 325 325 326 326
313 314 315 314 315 315 315 315 315 315 316 316 317 316 316 315 315 315 315 315 316 317 318 318 318 317 308 309 303 301 318 317 319 319 319 319 317 315 314 314 315 311 311 312 311 313 315 312 314 314 314 308 311 307 310 315 318 316 314 312 313 314 315 314 314 315 319 317 320 318 315 317 317 315 314 320 324 325 323 323 323 324 324 324 324 325 326 326
313 314 314 315 315 315 315 314 315 315 315 316 316 316 316 316 315 316 315 316 316 317 318 318 318 313 309 306 303 305 319 318 317 316 317 316 314 314 314 314 314 313 311 309 312 314 321 314 315 314 303 310 302 308 309 316 317 314 313 306 310 312 311 314 313 313 318 316 320 319 314 311 311 310 317 322 324 323 322 321 322 322 323 324 324 325 325 325
313 314 314 315 315 315 314 314 315 315 315 315 315 316 316 316 316 316 316 316 316 317 318 318 318 313 307 301 307 315 319 320 316 316 315 315 317 316 315 315 316 314 313 312 311 317 319 318 316 312 315 307 307 304 311 317 317 314 312 308 306 306 306 313 316 318 317 318 319 314 297 301 307 313 319 322 322 322 320 320 321 321 322 323 323 324 324 325
313 313 314 314 315 314 315 314 315 315 315 315 315 315 316 316 316 316 317 316 317 317 317 318 315 312 306 303 314 321 321 320 317 316 315 317 315 314 316 316 316 317 317 315 314 318 319 318 316 314 314 307 304 317 313 316 315 305 310 309 301 299 300 312 315 316 315 319 317 313 297 297 307 315 319 321 323 320 318 319 319 320 320 321 322 323 323 324
313 313 314 314 314 315 315 315 314 314 314 315 315 315 315 315 316 317 317 317 317 317 318 317 314 306 302 308 320 324 339 317 312 313 315 314 313 312 312 315 315 316 316 316 315 317 318 318 314 308 304 314 310 310 307 307 307 307 300 297 304 300 301 308 313 311 310 316 318 308 295 298 309 314 318 321 322 320 318 318 319 319 320 321 321 322 322 323
313 313 314 313 314 314 315 315 314 314 314 314 314 315 315 316 317 317 318 317 318 317 317 310 311 307 303 304 312 328 317 312 310 314 314 315 313 311 314 313 314 314 313 314 318 316 314 317 308 308 309 308 306 303 303 299 301 306 301 299 298 301 301 304 310 314 314 311 315 308 298 308 309 316 318 320 320 319 318 317 318 318 319 320 321 321 322 322
313 313 313 313 313 314 314 314 314 313 314 314 314 315 314 315 316 317 317 317 316 316 311 308 312 310 301 313 319 311 310 313 316 315 315 316 315 315 314 310 312 310 311 313 314 311 313 313 311 314 309 303 304 302 295 293 294 298 303 297 303 302 303 300 311 314 314 312 307 311 307 308 310 316 318 318 319 318 317 317 317 318 319 319 320 321 321 321
312 312 312 313 313 313 314 314 314 313 313 314 313 313 313 315 316 314 315 316 316 314 312 314 310 306 303 314 306 308 313 313 315 315 316 316 317 314 311 311 314 310 309 307 309 306 310 306 311 302 304 304 301 296 291 288 295 295 296 298 299 302 305 303 303 309 311 310 309 307 306 308 313 316 317 318 319 318 317 317 317 318 319 319 319 320 321 321
312 312 312 312 313 313 314 314 314 313 313 313 313 314 316 314 313 312 310 313 310 307 302 305 303 297 295 304 311 312 313 315 315 315 310 313 315 316 315 314 313 310 307 304 303 308 306 305 305 300 297 302 304 301 296 300 304 301 301 301 301 298 299 300 308 312 311 308 305 305 303 309 312 314 316 317 318 317 316 317 318 318 319 319 319 320 320 321
312 312 312 312 312 312 313 314 314 313 312 310 309 309 311 308 308 308 309 310 308 311 310 309 311 311 312 312 310 315 317 316 309 311 312 315 315 312 311 311 307 308 303 298 302 304 308 297 295 296 300 307 308 308 307 307 306 306 305 304 301 302 302 308 310 313 314 309 304 305 305 311 312 314 315 317 317 316 314 315 316 317 318 318 318 319 320 321
312 312 312 312 312 312 312 313 313 312 312 309 308 308 308 307 302 301 307 309 311 313 312 312 313 312 311 313 314 313 307 308 311 309 313 317 313 309 306 306 302 298 301 303 303 306 304 296 298 301 308 311 309 310 310 308 308 307 305 304 301 302 298 307 309 312 313 308 305 307 305 310 312 314 315 316 316 314 314 314 315 316 317 317 317 319 319 321
311 312 312 312 312 312 312 312 312 312 311 308 307 308 314 313 316 316 308 303 309 314 314 314 316 313 316 316 316 314 311 305 305 308 312 313 310 303 305 305 303 297 302 301 300 298 297 296 300 308 314 315 314 310 309 307 306 306 301 301 299 300 303 308 311 312 312 308 301 308 306 306 310 312 313 314 315 316 316 315 315 316 316 316 317 319 319 320
311 311 312 312 312 311 311 311 312 311 307 306 306 309 310 316 320 318 314 308 305 312 313 313 309 309 310 314 315 316 306 303 300 306 309 311 306 307 305 302 303 306 305 301 296 297 293 297 305 307 313 311 311 311 309 308 307 302 300 299 297 303 299 295 306 309 311 308 306 308 305 302 307 309 312 314 316 315 316 315 316 317 316 316 316 319 319 320
311 311 311 311 311 311 311 311 310 308 304 307 309 311 318 319 319 318 313 305 303 309 309 310 311 310 309 308 314 312 305 304 305 304 314 310 304 307 307 305 302 303 299 302 300 297 300 308 310 310 313 308 308 310 305 302 300 306 303 302 301 302 302 301 303 308 311 310 312 307 301 299 303 303 307 311 315 314 315 315 314 316 317 318 318 320 321 320
311 311 311 311 311 311 310 309 306 307 310 307 307 313 316 317 318 318 310 304 303 305 313 312 316 311 311 317 315 309 307 307 306 309 312 311 307 305 305 309 308 301 302 305 305 305 306 307 309 312 308 308 308 306 306 303 298 301 307 307 305 307 304 307 308 308 302 300 307 304 292 291 299 302 305 307 310 310 313 312 312 313 314 316 316 318 320 322
310 310 310 311 311 310 309 308 312 310 308 309 314 318 319 319 318 320 306 296 291 301 311 308 321 308 314 308 311 309 308 302 307 309 312 312 313 309 307 305 309 300 307 304 304 309 308 311 308 306 307 306 306 306 307 308 301 299 303 309 307 306 307 307 305 303 293 291 301 309 293 287 295 299 303 306 308 308 309 311 312 313 313 315 316 318 319 320
310 310 310 310 310 310 308 311 308 309 308 312 315 317 319 320 322 318 304 288 283 301 301 308 313 307 312 310 309 310 294 298 315 311 311 315 308 317 307 302 306 309 311 311 304 301 307 307 307 307 306 305 304 300 307 306 301 298 308 309 307 306 305 306 306 303 298 306 307 308 300 290 290 296 303 306 306 306 307 309 310 312 312 315 316 318 319 320
310 310 310 310 310 308 306 305 306 307 310 314 317 319 320 321 323 314 292 279 281 304 304 308 312 318 312 312 310 305 306 309 303 310 314 315 316 314 309 305 306 305 308 308 292 302 306 304 306 305 305 303 303 305 308 307 302 302 309 310 308 306 306 306 304 301 302 298 291 298 305 292 289 295 303 305 303 303 305 307 309 310 312 314 316 318 319 320
310 309 310 309 309 309 308 305 305 306 314 317 316 318 321 324 317 300 284 280 298 300 321 309 318 312 309 313 310 309 308 310 303 307 312 314 319 314 305 303 305 305 308 305 297 301 306 307 307 309 305 302 306 307 309 308 302 308 312 313 310 309 309 307 301 300 299 294 288 293 300 290 289 292 299 303 303 302 304 307 309 310 311 313 315 318 319 320
310 309 309 309 307 308 304 307 304 311 314 314 316 318 321 315 303 290 281 280 301 293 306 308 305 305 308 303 305 307 305 305 309 308 310 307 307 310 309 312 306 303 301 305 303 303 304 312 314 309 305 307 307 307 310 308 308 313 311 308 306 305 303 304 302 301 295 286 291 298 300 296 287 292 298 299 301 305 305 306 309 311 311 313 315 317 319 319
309 309 309 309 302 307 307 304 309 313 314 315 317 319 316 306 293 280 279 291 303 299 306 304 301 308 304 301 300 304 303 305 305 305 302 307 304 306 305 303 305 300 298 299 299 303 304 305 305 306 310 309 307 304 311 311 311 310 305 302 300 296 300 297 296 298 287 284 291 297 299 299 287 288 296 304 307 307 306 305 307 309 310 311 314 317 319 320
309 309 309 306 306 308 303 302 312 312 313 315 318 315 303 289 288 284 284 308 292 298 300 298 303 303 303 304 301 300 299 304 304 303 299 299 299 299 299 295 299 292 290 293 294 301 298 299 303 305 313 308 305 302 305 308 309 306 302 298 291 287 288 284 289 287 286 285 291 298 300 294 292 297 300 303 306 307 308 309 308 309 311 311 314 317 319 320
308 308 309 308 308 305 305 308 310 312 314 315 317 311 296 285 283 288 292 298 290 303 299 307 302 302 302 301 300 301 303 299 303 305 304 302 299 300 303 303 304 299 291 297 296 295 295 302 305 304 307 310 306 298 297 298 302 301 298 292 287 283 283 281 281 284 284 291 297 298 301 291 293 297 303 303 307 309 310 310 310 311 311 311 314 316 318 320
308 308 304 306 307 307 309 310 312 313 311 314 310 300 292 284 285 307 298 298 298 307 306 304 304 303 302 296 300 301 298 303 303 304 303 300 299 296 300 304 304 302 301 296 292 293 285 290 297 303 299 308 306 303 301 301 300 299 305 298 292 289 285 281 283 281 283 285 292 301 293 286 288 293 303 306 308 310 311 311 311 312 312 312 315 316 318 319
307 306 304 305 306 307 307 309 309 311 310 313 303 293 284 285 291 293 295 300 303 305 303 306 302 300 297 299 305 303 302 299 305 302 300 299 295 298 299 301 304 304 304 291 296 296 296 294 301 308 307 308 306 308 310 306 302 304 305 300 295 293 293 286 288 285 286 286 287 293 289 292 293 301 305 307 308 310 312 311 310 311 311 312 313 315 316 318
306 306 306 304 306 310 308 309 309 309 309 308 293 286 285 292 291 299 297 309 307 302 302 302 302 297 296 296 301 304 305 301 301 301 299 300 301 299 304 304 303 304 299 291 295 291 295 290 304 307 308 308 309 309 309 308 291 298 300 293 296 302 297 284 288 292 289 282 284 283 290 292 298 301 304 306 307 308 309 310 309 309 310 311 312 314 315 317
304 309 309 312 310 315 310 311 311 309 312 305 295 286 293 300 303 303 309 305 305 306 301 293 294 295 294 294 295 301 300 303 301 299 295 301 299 301 303 303 306 305 305 300 296 300 292 292 300 302 302 305 309 310 311 308 306 300 293 297 305 304 301 291 287 283 281 282 283 290 289 290 287 287 300 304 305 307 307 308 309 309 309 310 311 313 315 316
304 307 313 314 316 314 313 313 312 312 309 300 290 301 305 300 309 308 309 308 307 307 300 295 298 303 296 296 295 300 302 299 299 301 297 301 296 307 303 302 308 306 307 305 299 299 299 289 295 302 302 305 308 306 304 308 309 301 297 306 297 287 288 291 285 281 280 279 278 284 289 290 292 292 297 301 303 304 307 308 307 307 308 310 311 312 314 316
303 308 307 312 317 315 314 314 316 311 304 298 292 294 301 305 307 309 311 311 312 306 298 300 297 306 302 295 298 302 302 294 303 301 297 298 296 304 303 304 303 306 307 305 298 298 300 289 291 300 303 306 304 300 291 298 305 307 306 301 302 295 289 289 288 289 283 279 280 283 286 287 295 295 299 300 302 303 304 305 307 309 309 310 310 311 313 314
309 307 304 318 317 316 315 317 314 307 300 290 291 297 304 304 310 312 311 308 307 302 301 301 305 297 301 299 303 297 302 303 300 298 299 302 298 306 302 306 303 306 306 306 302 304 298 296 286 294 304 302 294 298 294 297 296 297 297 296 298 299 300 295 295 293 288 282 278 281 281 287 292 300 302 303 304 304 305 305 309 309 310 312 313 313 313 313
312 308 308 317 316 316 318 315 308 303 300 300 302 302 304 305 312 312 313 310 310 314 307 305 301 297 299 299 299 306 301 301 301 297 300 301 299 291 305 306 307 304 306 304 301 299 292 295 286 291 295 293 297 305 303 301 302 301 295 292 294 293 293 288 285 295 294 288 283 281 281 285 296 308 306 305 305 307 307 307 309 310 311 312 314 314 314 313
305 301 307 318 316 319 313 302 303 305 301 299 297 303 302 313 308 308 312 312 311 308 312 307 305 303 303 302 302 304 302 299 301 299 301 298 303 302 305 310 307 307 305 296 298 306 299 295 290 289 291 292 299 303 306 305 304 303 298 297 298 294 292 285 285 286 289 292 292 287 284 289 298 304 305 305 306 308 308 308 309 311 311 311 313 314 314 314
303 301 316 318 318 321 305 297 297 298 298 299 305 304 306 305 309 312 309 313 309 310 307 306 305 305 307 305 306 303 304 299 303 298 300 303 304 306 308 309 309 308 304 299 303 302 319 292 288 292 295 297 300 302 304 304 303 300 299 299 299 296 295 292 289 291 287 291 285 284 282 288 298 305 305 306 307 308 309 309 309 310 311 312 312 312 313 313
307 305 314 320 321 321 305 291 289 288 296 304 305 305 308 306 308 307 310 312 306 306 304 307 308 309 305 307 305 302 305 293 303 303 298 306 302 310 310 309 310 307 308 302 299 306 291 292 292 284 282 285 289 294 298 302 301 297 297 298 302 302 302 299 297 294 284 291 291 285 283 285 299 306 307 305 307 309 308 310 310 309 309 311 312 313 313 313
306 309 312 319 321 319 306 303 298 295 299 300 301 301 303 309 309 310 309 310 309 308 306 305 308 309 308 310 307 308 308 301 296 305 306 307 304 312 310 310 311 307 315 315 328 310 296 294 287 282 282 280 281 282 286 292 294 296 300 300 302 302 301 294 289 288 283 290 292 283 285 294 303 305 305 304 307 307 308 309 310 309 309 310 311 311 312 315
303 293 299 312 317 316 311 310 308 304 299 299 297 299 304 303 308 310 310 309 310 308 307 309 309 310 309 308 305 307 305 309 304 301 304 302 306 308 310 310 312 313 321 323 320 307 298 298 292 286 283 282 286 289 295 296 296 293 298 299 301 301 300 297 293 287 286 289 288 292 292 294 299 303 303 303 304 305 306 307 309 309 310 311 311 312 314 314
306 298 293 294 302 304 305 304 305 303 297 300 292 301 300 304 309 309 312 305 309 308 309 307 309 304 303 304 303 304 307 307 309 307 307 307 309 309 310 310 310 319 321 315 318 303 295 291 297 297 296 295 297 299 301 301 297 299 298 298 300 299 299 296 285 288 294 290 286 293 297 294 299 303 305 304 304 304 306 307 309 310 310 311 311 312 317 315
295 301 309 308 299 290 293 293 307 306 307 306 299 306 303 303 304 302 309 310 310 309 303 304 307 308 306 305 302 295 303 304 306 303 311 311 308 309 308 312 308 315 315 308 311 301 294 288 298 297 296 299 299 301 302 301 300 299 299 299 297 299 298 295 296 299 296 286 289 297 300 298 300 304 306 306 306 303 306 307 309 310 311 312 311 312 313 313
309 308 309 313 299 303 303 305 309 307 304 308 299 305 301 302 301 305 306 305 306 304 306 293 301 306 307 309 303 298 302 294 294 305 305 304 306 304 301 305 308 309 308 305 307 303 294 292 297 299 296 298 300 302 304 303 302 303 302 303 303 304 303 302 301 302 301 298 300 300 299 300 304 306 309 308 309 308 309 310 309 310 310 311 312 311 312 312
298 300 301 308 308 305 306 306 306 304 302 307 291 303 305 303 301 305 310 306 298 304 308 303 303 306 306 308 305 300 303 301 301 301 308 305 299 302 302 303 300 304 307 304 308 305 298 290 300 297 290 295 299 303 305 304 303 301 302 303 303 303 303 303 303 303 302 301 301 301 298 299 306 309 310 310 311 313 313 312 312 311 310 310 311 312 311 313
302 305 307 304 301 303 305 303 302 301 293 298 295 302 304 305 304 307 308 314 306 304 306 304 306 306 308 308 307 306 309 308 308 308 310 304 298 306 300 301 305 302 304 304 303 303 298 292 298 292 284 290 297 300 301 303 302 301 300 301 301 301 298 300 296 302 300 298 298 299 298 297 305 309 310 310 311 311 310 311 312 313 312 310 310 311 311 311
303 307 309 307 299 308 302 304 301 297 292 302 305 304 304 304 308 309 298 310 312 311 310 308 307 306 304 305 305 307 310 310 310 311 311 311 309 307 305 306 305 305 301 302 303 299 299 294 290 286 284 285 293 297 298 297 293 292 296 299 302 302 302 303 304 305 303 302 296 293 297 303 306 309 308 309 310 310 311 311 312 314 314 313 312 311 312 312
Wind_Speed
16 16 16 15 15 15 14 14 14 13 12 12 12 12 11 11 11 10 11 11 11 11 11 11 11 11 11 12 13 12 11 8 11 11 14 25 21 16 23 13 4 12 15 7 6 8 7 2 2 3 3 4 3 3 6 6 3 4 4 4 6 2 1 5 5 7 9 11 7 4 7 17 10 3 5 12 13 13 10 10 4 11 10 7 9 15 15 14
16 16 16 15 15 15 14 14 13 13 12 12 11 11 12 11 10 11 11 11 11 11 11 10 11 12 12 12 13 12 9 8 15 16 23 26 17 18 21 25 23 16 8 6 7 7 6 2 2 7 5 3 3 4 5 3 5 3 2 5 6 2 7 6 7 4 6 9 9 7 3 13 9 10 3 10 3 11 14 8 10 13 12 12 13 14 14 14
16 16 16 16 15 15 15 14 13 13 12 13 12 11 11 12 11 11 11 11 11 10 10 11 11 12 12 12 13 12 8 11 13 17 20 21 27 24 22 21 20 17 10 9 7 6 6 2 6 6 2 6 4 5 4 1 4 2 2 4 5 5 6 6 9 10 8 13 12 9 3 13 7 2 2 7 7 10 16 13 10 15 15 13 14 13 13 13
16 16 16 16 15 15 14 14 14 13 13 13 12 12 11 12 12 11 11 11 10 10 10 11 11 11 12 13 12 8 8 12 8 10 7 11 12 20 24 22 18 14 7 7 8 7 4 3 2 4 4 8 3 2 6 3 3 2 2 2 5 6 5 7 3 10 7 13 11 11 5 9 2 3 5 11 12 4 5 8 17 17 18 15 14 14 13 13
16 15 16 16 15 15 14 14 13 13 12 12 13 12 12 12 12 11 11 12 11 10 10 10 10 10 12 12 12 5 8 4 4 4 5 15 19 8 23 22 18 8 8 6 7 9 7 2 1 1 4 5 3 1 3 2 1 2 4 4 5 3 4 4 6 7 7 4 15 9 11 6 5 9 10 7 9 6 8 7 12 18 17 18 16 14 11 12
16 16 16 16 16 15 15 14 14 13 13 12 12 12 12 12 12 11 11 10 11 11 10 9 10 11 11 9 6 6 3 2 4 9 10 18 2 14 21 19 15 8 8 8 6 1 1 2 5 3 3 2 5 3 2 4 3 2 3 4 7 8 5 1 3 9 14 6 9 7 4 5 7 5 2 4 3 4 5 10 13 15 15 14 13 13 12 12
16 16 16 16 16 15 15 15 14 13 13 12 12 12 11 11 11 11 10 10 10 10 10 9 10 11 10 8 5 4 5 11 9 10 14 6 7 16 17 16 13 7 7 6 5 2 2 0 3 3 1 0 1 2 10 1 6 3 3 5 14 11 2 9 9 10 10 12 5 4 7 11 11 9 1 5 3 8 9 11 12 13 12 13 13 11 13 11
16 16 16 16 16 16 15 15 14 13 13 12 12 11 11 11 11 11 10 10 10 10 10 9 10 10 10 5 5 2 6 9 15 9 2 11 10 14 15 9 9 7 7 5 5 2 0 1 6 1 1 2 1 5 4 3 1 1 2 4 9 7 3 1 6 11 11 10 9 12 12 5 10 6 3 4 5 10 11 10 12 12 12 11 11 11 11 9
16 16 16 16 16 16 16 15 15 14 13 12 12 11 11 11 11 11 11 10 9 10 10 9 10 9 7 3 4 8 6 8 4 3 4 8 8 10 11 8 7 8 5 4 1 2 3 3 2 4 3 1 1 10 5 3 4 0 2 2 2 5 5 7 7 11 12 8 14 17 12 10 13 14 9 2 6 10 11 11 11 11 11 11 10 10 10 9
17 17 17 16 16 16 16 15 15 14 13 12 12 11 11 11 12 11 10 10 10 10 11 10 9 8 6 3 5 2 4 4 1 3 6 7 8 10 6 9 11 6 3 3 3 2 2 2 5 3 2 0 1 8 0 5 4 3 5 6 4 6 11 15 7 4 6 5 14 14 10 7 1 6 2 1 6 10 12 11 10 11 11 10 8 8 8 9
17 17 17 17 16 16 16 15 15 14 13 13 12 12 12 12 11 11 9 9 10 10 11 11 9 7 4 4 2 4 4 3 2 3 7 6 5 5 7 7 8 7 5 2 4 7 2 4 3 2 1 1 3 3 9 4 1 4 5 9 13 7 14 12 14 10 4 4 10 16 8 2 3 5 10 9 7 11 13 11 10 9 9 9 8 8 7 7
17 17 17 17 17 16 16 16 15 14 13 13 12 12 11 11 12 11 10 9 9 10 10 10 9 2 4 4 5 8 4 2 2 4 7 10 7 9 6 6 9 6 7 1 4 7 7 7 3 2 1 1 2 4 3 5 1 0 5 11 7 6 8 9 7 10 4 3 4 10 8 3 2 6 9 10 8 11 12 11 9 9 8 8 8 7 7 8
17 17 17 17 17 17 17 16 15 14 13 13 12 12 12 11 11 11 11 9 8 9 11 10 7 3 4 3 8 11 9 8 4 5 5 7 3 7 7 7 8 8 8 6 2 8 5 3 2 3 2 2 4 3 4 5 3 4 7 8 5 4 4 2 4 5 6 3 5 5 1 4 1 7 8 8 11 10 11 9 8 7 7 7 8 7 7 6
18 17 17 17 17 17 16 16 15 15 14 13 11 11 12 12 12 12 11 9 9 9 8 9 4 3 1 6 6 5 7 5 5 4 4 5 3 2 4 6 6 6 7 7 4 6 7 5 5 0 2 3 5 6 10 5 6 5 1 6 4 2 4 3 3 8 2 3 2 3 2 2 1 7 8 8 12 14 11 9 8 7 7 7 7 7 7 7
18 18 18 17 17 17 17 16 16 15 15 14 12 11 12 13 12 12 11 10 8 8 8 7 1 1 1 7 7 9 11 0 3 6 6 5 3 4 6 7 9 10 9 10 3 5 8 1 2 2 3 2 9 13 6 5 4 4 5 4 1 2 2 7 7 6 2 0 2 6 2 4 3 8 7 7 9 10 10 8 8 8 8 8 7 8 8 7
18 18 18 17 17 18 17 17 16 15 15 14 13 11 11 13 12 11 11 9 10 10 6 2 1 1 1 4 3 14 5 1 4 7 4 5 5 6 5 2 2 4 3 8 6 3 4 3 2 1 0 5 9 9 6 2 5 5 6 1 2 2 1 6 6 9 5 3 2 2 3 2 1 5 6 5 10 9 10 8 8 8 9 9 9 8 7 7
19 18 18 18 18 17 17 17 17 16 15 15 14 11 11 12 12 10 10 10 5 2 1 1 1 1 3 1 5 5 4 5 5 4 4 3 5 3 4 2 1 2 5 6 4 5 4 5 4 3 2 4 3 6 5 6 3 5 4 2 1 1 1 1 6 4 5 2 3 1 5 4 3 9 7 5 9 9 10 10 10 9 9 8 8 8 8 8
18 18 18 18 18 18 17 18 17 17 16 16 15 12 9 8 5 7 8 3 1 2 3 3 2 2 3 3 1 3 3 4 1 4 3 3 1 3 3 2 3 6 3 4 5 3 2 1 1 2 3 5 3 2 6 2 4 2 1 3 3 2 1 4 1 4 4 6 4 2 3 4 6 9 9 8 9 10 10 10 10 10 10 9 8 8 9 9
19 18 18 18 18 18 18 17 18 17 17 18 15 15 7 1 2 1 2 1 1 1 2 1 1 3 3 6 6 6 4 5 4 1 3 2 2 1 2 3 5 4 2 5 2 3 1 2 4 5 6 7 4 2 5 7 7 7 7 3 2 3 2 2 1 5 1 4 6 3 5 4 7 9 8 7 8 10 9 8 7 9 10 9 9 9 9 9
19 19 18 18 18 17 17 17 17 17 17 12 6 2 3 1 1 1 1 2 4 3 2 3 4 3 7 9 4 4 4 2 2 2 2 3 1 5 6 3 4 4 4 2 1 2 1 5 4 2 2 4 8 7 6 9 9 5 3 2 1 0 2 1 8 3 6 2 6 2 1 6 10 13 13 11 7 7 6 9 9 10 10 10 9 10 10 10
20 19 19 18 18 17 17 17 16 15 13 8 7 2 2 1 2 4 4 6 7 5 5 5 9 7 5 1 4 3 0 2 1 2 0 0 5 5 2 3 4 5 2 4 3 3 4 6 2 3 3 3 8 8 9 12 12 10 5 2 0 1 2 2 2 2 1 2 3 2 2 7 10 10 10 8 8 11 10 9 10 10 11 10 11 11 11 9
20 19 19 18 18 17 17 17 16 15 12 6 3 2 1 3 1 2 3 4 3 8 8 10 4 5 3 7 8 3 1 0 2 5 2 3 1 2 1 3 2 3 1 2 4 6 3 5 2 1 1 4 3 6 7 11 9 5 7 5 1 3 3 1 3 3 3 4 4 3 1 3 4 7 8 11 14 11 10 11 12 12 12 10 10 11 10 8
20 20 19 19 18 17 16 17 15 15 6 2 2 2 5 5 1 2 3 1 5 2 5 4 4 5 4 4 4 2 2 1 2 2 1 2 2 1 2 2 2 1 1 3 5 3 4 4 1 1 2 2 3 3 8 8 5 5 5 3 1 2 2 4 1 1 2 2 2 2 1 2 2 3 8 10 11 7 7 10 11 12 14 12 12 12 12 11
20 20 19 19 19 17 18 15 18 7 4 5 5 7 6 4 3 4 1 2 2 5 3 4 4 2 4 4 3 5 4 2 2 3 0 3 1 2 2 2 3 3 3 5 6 2 3 5 4 4 0 2 2 2 5 5 4 1 5 3 1 2 2 3 2 2 1 0 0 2 3 4 3 3 6 7 6 4 5 6 8 9 10 12 11 12 14 15
20 21 19 19 19 20 17 18 5 3 4 2 6 10 12 11 4 3 3 3 2 4 3 2 2 3 4 3 3 9 4 1 4 3 3 4 2 3 1 0 3 1 2 4 5 4 4 4 1 1 1 3 3 2 2 5 4 3 2 3 2 0 1 0 0 1 4 2 1 1 2 4 3 5 9 7 6 7 6 8 9 9 8 10 11 13 13 14
20 20 20 18 20 20 18 3 1 4 4 5 6 6 7 4 5 3 3 2 2 3 3 2 1 2 1 2 2 2 5 1 5 3 4 5 3 3 1 1 1 2 0 5 4 1 4 5 1 6 3 6 6 2 1 5 4 4 3 5 8 7 3 2 2 2 1 2 2 1 4 5 4 4 5 7 10 11 5 9 10 9 8 10 12 12 12 13
19 20 19 19 17 18 3 0 4 7 3 2 2 7 7 3 3 4 2 4 2 1 0 1 2 1 1 2 3 3 0 2 0 2 2 1 3 3 2 2 1 3 4 1 6 4 4 7 7 9 10 9 5 1 7 11 8 3 4 6 11 9 5 2 3 2 3 1 3 1 1 0 6 7 4 9 11 11 9 9 10 9 7 11 12 13 12 13
19 19 19 17 16 8 3 6 8 3 4 3 9 8 8 3 4 4 3 2 2 2 0 1 4 0 2 0 5 2 3 2 2 1 1 3 8 8 6 3 4 7 8 2 5 6 12 10 12 12 10 6 4 11 8 12 8 6 4 10 12 10 7 6 5 3 1 2 5 1 3 1 4 6 1 10 9 10 12 11 11 9 9 11 12 13 14 14
18 19 18 17 16 16 6 3 1 6 4 7 11 9 6 3 5 5 3 2 3 1 2 1 3 0 2 0 0 2 0 1 2 3 3 11 6 7 3 8 8 9 9 10 8 2 6 12 15 13 10 9 10 6 11 12 6 0 8 8 6 8 6 4 2 3 1 2 4 3 6 3 6 5 1 3 9 12 13 13 11 11 11 11 12 13 13 13
17 17 17 14 11 1 2 3 8 9 7 9 10 10 6 2 2 2 2 1 1 2 1 2 2 2 3 3 1 1 1 1 1 0 1 2 5 7 5 2 2 1 2 5 8 8 4 9 12 8 8 9 8 7 14 10 7 12 12 10 6 6 3 2 2 2 3 2 7 6 9 6 3 5 6 8 9 14 9 6 8 9 9 10 13 14 13 12
15 15 13 10 3 2 2 4 10 6 8 8 10 7 2 3 2 3 2 3 2 4 1 2 3 0 2 4 1 1 1 1 1 3 3 1 1 1 2 1 2 1 1 1 4 5 3 3 5 6 11 6 6 4 9 9 14 15 5 5 6 2 1 3 2 3 3 3 8 4 11 6 3 6 5 9 1 6 11 13 14 12 12 10 10 13 14 13
14 13 14 7 5 3 3 5 0 5 8 10 6 4 3 2 4 3 2 1 2 3 0 3 3 3 3 3 4 4 4 1 3 2 3 2 1 1 1 2 0 1 2 1 3 2 2 5 3 4 5 9 3 11 7 9 7 6 7 4 4 1 2 2 2 1 2 5 2 3 8 3 8 11 8 3 7 5 10 11 14 15 13 10 10 13 13 12
15 14 15 11 9 8 11 13 7 8 9 9 2 3 2 4 1 3 1 2 2 1 2 1 5 4 3 2 2 4 4 4 2 3 3 1 2 4 2 3 3 2 0 2 2 5 3 2 1 2 4 1 7 9 7 4 6 5 7 5 5 3 2 0 2 1 3 5 3 2 6 2 4 7 10 12 11 9 9 9 11 14 14 13 12 12 12 13
17 15 8 6 10 13 6 1 1 6 7 5 2 4 6 4 2 6 1 2 2 1 4 2 5 5 1 4 3 4 1 1 7 3 5 0 2 1 2 7 6 1 1 1 2 1 4 5 5 5 1 2 5 7 10 7 9 5 1 5 5 7 4 2 2 1 1 2 4 2 3 4 1 2 3 7 8 6 6 7 9 13 14 14 13 13 14 14
21 15 6 4 7 12 16 8 3 2 3 1 5 4 2 2 2 1 2 1 2 2 2 4 3 3 5 2 1 4 5 2 8 3 5 3 3 2 2 3 6 4 2 1 1 3 2 4 8 2 4 3 2 2 6 8 4 0 2 3 4 4 5 1 5 2 1 1 2 1 3 3 2 3 5 1 2 4 6 5 6 8 8 9 10 12 13 13
10 1 4 2 4 5 8 8 7 3 2 3 3 1 1 3 1 1 1 2 1 1 4 5 6 3 2 3 3 0 4 2 6 3 2 4 2 2 6 4 4 9 5 3 2 2 3 1 4 2 4 13 10 5 3 8 2 3 2 1 4 3 7 3 2 1 3 4 1 1 5 4 6 4 8 4 3 1 3 5 6 7 7 10 11 12 12 12
3 2 2 3 4 3 8 10 9 7 4 6 4 1 5 3 5 3 3 0 0 2 3 4 3 2 2 2 2 5 2 1 2 2 1 1 2 4 2 6 5 4 9 6 4 3 7 6 5 2 1 4 6 7 8 1 8 6 1 5 1 2 5 2 0 2 3 2 1 1 1 5 5 1 6 4 3 1 4 2 5 6 8 11 11 12 13 14
5 2 3 4 3 10 10 11 11 3 3 3 1 6 2 0 2 2 2 2 2 3 2 2 1 2 1 1 5 3 5 4 6 5 1 0 3 2 3 3 3 9 10 7 7 3 4 3 4 1 4 3 1 5 3 2 5 5 3 6 5 1 2 3 2 2 1 1 2 3 2 1 1 2 3 2 0 1 1 2 4 5 7 11 12 13 14 14
1 2 3 3 5 11 10 11 3 5 3 2 2 1 3 4 1 2 4 5 2 3 1 1 2 1 2 1 2 3 2 2 1 0 1 2 3 4 2 2 3 5 3 8 3 1 1 1 2 5 3 1 3 4 2 2 5 5 3 1 0 5 3 1 2 2 5 0 1 2 3 0 2 2 2 4 5 3 2 1 3 4 7 5 4 6 10 11
3 3 2 2 6 8 12 5 5 4 4 1 3 3 2 1 2 5 3 2 1 2 2 2 2 0 1 6 0 1 2 2 0 1 2 1 3 6 2 6 2 8 3 7 3 2 1 2 1 5 3 4 1 0 5 6 3 3 2 2 1 1 2 4 1 1 2 2 2 1 2 2 4 4 2 6 5 5 2 3 3 3 5 6 7 8 9 9
2 1 2 3 6 9 6 3 3 1 1 3 1 3 3 2 1 2 5 3 2 1 3 3 4 4 4 1 3 1 1 2 2 1 0 2 1 4 3 4 7 7 2 4 1 1 1 1 0 3 3 1 6 5 4 6 9 8 5 3 4 2 1 1 2 2 2 3 2 2 1 5 8 2 4 5 6 1 2 3 4 3 3 5 6 6 7 8
1 2 2 3 9 6 5 3 1 1 1 3 2 1 2 1 2 3 1 2 3 0 1 2 4 3 1 0 2 1 1 2 1 2 2 1 4 0 5 11 7 3 2 1 1 2 1 2 4 0 4 3 4 5 3 6 4 3 4 1 3 4 5 5 2 2 2 1 4 3 5 2 5 3 4 4 4 0 2 2 1 0 2 4 4 4 5 6
2 1 3 8 8 3 2 1 2 1 2 4 4 4 7 4 2 3 1 0 1 1 1 2 3 2 1 1 0 2 1 1 1 1 2 1 3 3 7 10 8 5 4 4 4 1 4 1 2 3 5 5 3 3 4 3 2 3 2 3 2 1 3 5 4 3 3 2 2 2 2 3 6 9 7 3 3 1 1 5 2 2 3 4 5 4 4 4
1 2 1 3 6 1 1 2 1 2 3 5 3 5 8 4 2 1 2 0 2 1 1 1 2 2 2 1 1 1 0 1 2 1 2 1 2 6 8 10 10 2 3 1 1 2 2 2 4 2 3 5 6 6 9 8 6 2 1 4 0 1 6 2 5 2 4 2 3 5 0 2 7 8 10 7 1 1 1 3 5 4 4 4 4 4 2 2
1 2 1 1 2 1 2 3 3 1 2 3 3 7 8 2 1 3 3 1 2 0 0 2 1 2 1 1 1 0 1 3 1 2 0 1 2 3 8 11 10 2 4 1 2 1 3 1 2 2 2 2 1 2 2 3 4 4 2 6 7 6 3 2 3 4 4 4 4 2 0 7 7 10 12 9 2 2 4 7 5 4 5 4 2 2 7 5
2 1 5 2 1 2 2 1 1 1 4 2 4 6 2 2 3 4 8 3 5 4 3 0 2 3 2 1 1 0 1 1 1 1 1 2 2 2 3 7 8 4 8 12 9 3 1 1 3 3 4 4 2 3 3 3 2 3 1 5 5 6 5 7 5 5 4 1 5 2 6 1 8 10 11 11 8 3 5 4 4 4 4 3 6 4 3 2
1 2 0 0 4 1 3 2 1 1 2 2 0 1 4 2 1 2 5 2 4 5 1 3 1 1 1 2 0 1 1 1 3 1 1 0 3 2 5 4 5 8 10 7 9 4 3 4 2 3 2 2 2 2 2 1 4 2 5 2 4 5 4 6 4 3 3 7 5 2 1 4 6 8 11 12 12 7 1 1 2 2 4 2 4 2 3 2
3 1 2 1 2 2 1 2 1 3 4 0 1 3 2 3 5 2 4 2 3 6 6 6 5 2 1 1 2 1 1 1 2 0 1 1 1 5 6 8 3 5 5 2 4 4 2 2 2 1 4 4 7 3 6 6 3 2 3 3 6 4 9 7 1 3 3 3 7 3 4 6 4 8 10 11 12 7 3 4 4 3 1 2 3 3 2 3
1 1 0 2 1 2 3 5 1 2 5 5 1 3 3 5 4 3 1 5 5 5 9 2 7 5 3 1 1 1 1 1 1 2 0 1 0 1 1 2 1 4 4 2 3 1 3 1 1 0 2 7 9 10 8 11 8 10 9 8 5 9 8 6 4 2 4 2 2 4 3 4 3 8 10 10 9 9 9 10 8 5 2 1 1 3 1 2
3 2 4 5 1 2 3 2 1 4 6 4 3 3 1 0 2 1 1 1 1 3 3 4 11 11 4 0 1 1 2 3 3 2 2 1 3 1 0 2 1 4 3 2 1 2 4 1 2 2 4 5 5 8 8 12 11 11 9 8 5 6 11 8 5 7 5 7 6 4 2 4 3 5 6 6 8 11 15 15 12 11 7 3 3 3 3 4
2 1 0 1 4 4 2 2 3 5 2 5 4 2 2 3 1 1 0 0 2 2 1 1 8 12 3 2 1 3 6 3 4 4 3 4 1 3 2 2 1 1 3 1 2 3 5 1 2 3 2 1 1 5 7 11 14 14 12 13 11 7 9 7 6 4 3 4 2 3 7 5 8 9 6 4 10 13 12 11 12 9 11 10 7 7 5 2
1 1 0 1 1 2 1 1 2 5 3 1 1 1 1 1 2 1 2 2 2 6 4 2 6 4 4 1 6 7 6 5 7 6 6 6 4 3 0 2 2 0 0 0 0 2 0 1 1 1 4 1 4 2 5 2 3 7 8 8 8 6 5 7 9 12 9 2 5 5 2 4 5 5 6 9 9 11 12 12 11 12 10 9 10 9 8 7
Wind_Direction
345 343 343 342 338 336 336 332 331 326 325 327 327 323 321 321 321 321 316 317 311 304 304 307 309 309 310 311 309 307 309 297 296 284 273 255 242 221 237 244 215 209 224 240 251 262 274 230 199 141 164 179 237 216 241 214 196 154 177 193 257 200 106 227 215 201 166 145 189 188 145 119 126 125 118 74 53 87 80 69 45 52 56 88 113 118 127 132
346 343 342 341 338 335 334 333 329 327 325 327 327 323 324 323 323 322 321 323 320 312 305 305 306 304 309 309 306 308 309 293 290 281 258 252 253 223 222 233 247 246 245 247 242 238 243 226 158 139 177 223 200 236 183 213 178 163 175 173 227 162 232 200 227 167 146 167 157 144 151 122 140 130 166 98 96 98 82 69 86 87 85 97 111 125 129 136
346 344 341 341 339 335 332 331 329 326 324 325 325 326 325 327 326 324 327 327 324 321 315 310 305 304 301 304 308 305 311 297 291 275 256 253 245 230 217 217 226 234 223 224 236 219 222 356 52 85 215 251 226 208 178 255 149 200 155 208 234 218 260 290 224 184 175 138 133 125 135 115 166 89 108 107 129 102 118 120 102 117 125 126 129 132 135 139
345 343 341 339 338 335 331 329 328 328 324 321 323 325 327 328 328 326 330 329 319 318 318 314 308 306 305 302 303 314 299 302 271 250 258 252 257 229 201 204 206 212 199 221 257 278 287 311 28 125 233 223 243 173 186 235 106 211 156 201 226 196 233 270 244 145 136 132 124 118 138 98 102 82 106 132 90 58 132 152 142 144 140 138 141 140 144 144
344 342 340 339 338 335 332 327 327 327 326 320 320 323 326 331 331 331 328 330 328 321 323 322 316 311 310 307 308 316 311 324 265 225 281 320 312 175 176 187 196 185 196 210 239 242 232 243 77 13 224 205 194 139 232 138 173 303 194 215 220 282 263 252 78 71 79 85 117 125 111 123 99 75 115 134 129 186 179 181 143 142 144 145 149 148 146 152
342 342 339 338 337 336 332 329 326 327 326 323 319 323 326 329 332 332 331 329 329 328 329 324 320 316 311 317 311 296 326 13 305 295 322 324 74 143 161 176 179 171 172 212 231 278 280 196 163 118 230 129 178 159 114 65 293 305 295 321 328 288 240 165 182 121 118 113 114 112 134 95 85 87 36 74 141 178 149 149 146 142 146 144 141 145 152 157
341 340 339 338 337 335 333 329 327 326 326 326 321 322 324 325 331 327 327 329 326 325 322 323 313 319 324 322 282 276 248 263 307 268 320 0 115 139 152 164 164 164 187 206 211 200 179 157 101 155 267 87 223 114 74 262 252 127 261 335 308 293 187 171 166 130 115 124 113 114 104 101 112 86 313 63 331 123 124 135 135 134 136 141 145 154 157 162
340 339 339 337 337 336 333 331 327 325 325 324 325 320 321 320 324 323 323 324 321 318 318 317 319 322 336 327 316 265 254 258 257 279 52 100 119 134 145 143 158 170 192 201 163 168 87 99 123 110 86 138 219 105 141 33 287 111 353 313 295 290 20 252 118 113 110 99 110 90 84 100 96 121 96 31 87 112 115 123 129 135 139 145 147 153 158 159
338 337 338 337 336 336 333 331 329 323 322 322 321 320 316 319 317 322 322 320 319 316 319 320 323 329 329 284 291 310 247 225 260 125 81 107 120 119 121 140 167 181 187 175 253 336 7 154 90 154 243 191 247 109 78 95 321 97 105 320 298 0 357 77 97 113 112 108 100 85 93 100 107 87 53 78 99 116 121 123 134 139 143 150 154 155 158 158
338 336 336 337 336 334 334 332 328 324 320 317 319 319 318 314 315 316 320 317 315 314 314 322 317 341 319 289 293 283 293 139 123 154 114 112 118 124 161 158 177 170 151 167 164 252 191 177 164 211 116 129 341 91 238 124 213 126 91 50 33 33 46 28 359 48 88 93 110 109 117 128 276 79 122 51 132 122 122 129 142 145 150 151 150 153 157 154
338 335 335 337 336 335 334 333 328 323 318 314 315 317 315 313 312 313 316 317 312 314 312 315 321 324 323 311 347 290 262 135 195 177 132 113 122 155 202 159 169 171 179 163 198 203 228 302 177 169 80 203 210 70 47 282 214 109 135 56 22 29 68 53 11 343 65 44 106 115 121 100 19 78 150 161 155 135 130 140 145 149 151 153 149 152 154 149
337 336 335 334 336 335 333 332 328 324 319 312 312 312 315 310 309 312 312 315 314 310 317 329 334 330 270 279 236 239 264 332 174 183 152 153 181 207 205 176 176 168 164 192 247 207 184 209 167 82 202 96 49 104 12 316 33 26 105 74 348 4 48 63 68 320 342 78 110 110 79 21 18 135 154 151 143 136 135 142 148 148 151 153 148 148 155 155
337 335 335 334 334 335 333 332 328 323 320 312 310 310 311 309 305 302 310 308 304 311 316 318 304 309 323 302 229 240 270 270 245 178 173 192 216 184 199 194 185 182 185 184 291 150 135 152 120 144 267 175 128 119 234 344 315 77 28 108 17 19 70 42 168 169 88 183 183 112 66 260 322 142 152 152 139 131 130 143 149 152 150 152 151 153 153 154
337 335 335 334 333 334 333 331 328 324 318 314 311 309 307 309 306 302 300 302 295 297 310 325 317 290 281 248 277 267 270 257 221 177 206 217 268 249 202 220 210 208 194 224 252 137 92 249 139 169 227 77 59 56 33 321 354 64 322 59 20 360 112 318 352 351 113 201 213 74 144 276 109 165 159 163 146 144 147 150 152 152 149 153 152 154 156 166
336 335 335 335 332 331 331 331 329 324 319 317 314 308 303 302 303 298 296 299 297 294 302 318 243 336 333 280 249 281 277 308 180 232 201 179 212 293 249 226 230 220 203 204 212 152 144 206 63 33 333 281 94 76 21 303 353 23 55 5 277 114 284 324 345 340 259 267 39 83 67 235 183 178 176 162 149 145 145 154 154 155 154 156 159 159 161 171
335 334 335 334 332 331 331 331 328 324 319 316 313 306 291 285 289 295 292 290 298 294 283 286 188 196 263 325 342 317 320 352 266 254 238 185 181 227 253 230 216 271 204 171 194 132 100 93 83 204 289 33 79 107 169 298 350 23 82 85 9 8 342 344 2 342 315 311 3 126 183 86 119 200 177 168 148 151 148 156 168 163 162 163 166 167 165 162
333 332 333 333 331 331 330 330 329 325 321 316 311 304 294 281 276 279 295 290 280 307 173 292 20 166 58 268 287 326 284 273 280 304 282 212 226 240 313 342 243 255 46 69 38 74 77 53 291 21 29 109 117 119 89 34 3 16 35 103 261 57 332 69 282 282 330 269 233 57 120 207 176 164 180 169 159 157 159 166 171 172 166 171 169 166 169 169
332 331 330 330 330 329 329 330 329 327 322 318 311 295 285 282 293 312 299 246 272 290 299 271 271 347 296 312 334 275 279 274 248 271 285 309 268 250 180 72 40 39 36 54 359 59 46 54 358 151 31 17 45 42 103 217 162 128 73 40 330 333 241 244 141 305 333 294 223 180 102 184 155 164 184 179 176 165 171 172 173 173 172 170 170 172 174 173
332 331 329 328 328 327 328 329 329 328 326 320 306 281 271 45 338 324 308 188 46 7 21 346 86 57 208 276 266 279 281 257 332 324 305 309 309 6 40 73 52 45 25 57 294 64 342 76 24 32 35 22 3 132 159 159 130 147 154 191 167 157 244 222 40 314 69 247 300 218 182 164 163 171 187 190 180 176 178 174 165 171 177 174 171 173 175 178
332 330 330 329 327 326 327 327 328 330 333 329 341 346 105 353 13 317 7 339 209 214 208 223 156 294 302 284 267 233 252 118 351 276 257 220 20 32 24 22 13 52 67 101 354 345 23 83 101 148 110 84 45 53 99 126 121 105 93 86 273 255 271 322 129 222 320 275 236 222 349 168 175 182 189 187 179 183 174 177 176 174 179 177 175 175 177 178
329 331 329 329 327 327 325 326 325 327 332 326 317 262 57 142 51 328 300 230 205 220 220 222 182 188 212 301 279 294 352 310 256 279 14 85 83 67 349 25 21 27 2 77 102 308 69 92 189 203 171 141 122 105 86 94 111 134 139 165 227 37 328 269 94 100 99 290 277 25 154 195 192 192 186 176 176 198 189 179 183 180 180 179 178 178 179 174
330 329 329 329 326 327 324 322 323 318 328 305 302 287 293 223 202 196 105 328 298 209 215 243 209 242 243 235 255 233 101 336 333 302 302 71 53 83 309 80 86 134 313 66 35 20 49 151 192 182 41 91 109 126 126 125 137 147 141 163 103 299 243 264 80 62 86 56 295 344 56 226 207 193 185 183 191 198 190 179 184 179 183 181 180 180 168 153
330 330 328 328 327 324 325 317 315 322 314 247 213 224 240 231 1 290 187 278 267 229 192 241 277 255 254 242 246 125 275 185 225 283 284 73 1 106 147 61 48 39 67 64 98 68 71 260 173 340 321 25 49 89 117 108 98 125 113 84 171 263 33 304 308 33 98 137 205 348 328 275 269 240 207 204 192 199 189 181 186 185 185 183 181 176 169 166
328 329 328 327 325 326 317 318 311 301 217 230 257 228 255 298 348 331 82 218 267 307 208 206 202 204 237 220 201 184 198 247 121 260 207 98 147 175 71 128 86 51 102 94 109 108 224 272 344 349 172 267 210 101 139 111 95 54 96 98 96 196 231 178 258 330 318 9 39 318 328 303 248 185 210 224 214 205 202 189 195 198 196 185 177 175 172 170
327 327 328 326 326 323 319 316 339 228 194 191 245 249 252 265 295 252 90 334 342 287 196 48 23 228 235 231 139 178 187 334 212 210 169 148 174 69 265 173 95 45 105 108 114 87 295 274 9 42 131 284 201 202 158 121 49 5 142 162 214 167 234 122 35 53 22 345 8 95 349 287 263 232 193 195 196 216 212 194 201 191 192 182 171 179 181 175
327 326 327 328 324 326 308 326 276 354 310 254 237 272 250 234 243 226 96 79 341 273 13 311 73 312 5 210 118 162 98 224 225 212 140 210 150 143 118 22 109 162 118 68 84 28 287 329 213 235 226 230 227 144 178 82 108 43 299 197 215 217 212 140 65 59 48 149 272 104 175 269 319 256 198 179 193 207 210 204 209 198 179 178 175 177 176 172
326 324 325 327 327 330 343 234 354 294 288 288 305 332 328 213 155 63 55 360 19 299 207 187 43 251 312 214 169 78 59 278 89 44 184 341 130 7 111 316 74 66 35 92 57 309 228 255 260 239 207 209 173 135 173 153 133 186 248 201 177 171 171 145 107 109 207 243 270 184 116 286 310 280 207 182 185 205 210 211 208 206 185 177 177 175 174 174
322 322 323 324 323 334 262 316 338 311 242 302 330 321 319 281 68 55 78 66 332 281 288 262 203 66 259 48 125 124 195 131 56 331 135 60 67 13 53 208 166 174 187 151 172 209 182 204 213 201 204 187 199 217 170 155 146 199 200 142 154 171 169 153 127 134 339 44 301 24 101 3 261 272 278 165 185 209 218 209 206 199 187 177 175 176 175 175
320 319 320 321 318 300 257 231 304 253 255 328 318 317 320 4 73 99 116 98 248 294 99 50 25 349 192 353 245 142 357 125 141 223 146 113 131 137 238 250 189 209 196 180 199 228 189 191 195 191 183 198 211 185 149 160 122 177 116 78 70 77 77 105 118 103 40 79 269 222 170 178 283 265 146 205 193 208 215 207 203 198 185 176 174 177 176 175
313 315 316 321 319 295 109 216 228 241 308 313 309 310 319 53 36 36 21 298 41 300 222 219 88 246 160 179 249 135 89 301 260 34 131 167 179 162 217 204 193 215 254 211 217 229 201 187 185 181 199 217 210 192 160 161 103 124 92 104 87 54 70 80 63 78 66 18 248 199 173 154 298 266 189 155 212 207 193 193 204 203 191 178 173 175 175 174
306 301 303 311 282 308 294 273 248 243 265 299 317 318 44 34 107 99 85 242 81 251 302 285 270 275 170 190 205 262 77 184 95 134 199 350 341 351 348 5 21 22 351 359 258 260 235 182 163 220 198 201 175 122 148 137 143 125 134 136 124 48 328 51 23 37 72 285 271 215 174 165 164 291 267 225 289 177 174 188 191 197 195 182 175 177 175 173
300 291 283 262 233 323 200 235 46 349 333 327 326 42 65 11 7 87 246 52 78 288 6 292 275 273 269 211 168 151 189 127 155 180 195 189 208 343 293 164 171 22 336 302 288 317 294 227 218 247 195 165 139 78 108 141 163 109 103 107 101 326 33 352 27 17 202 212 284 98 131 101 241 238 245 250 236 198 182 187 189 190 192 182 175 177 175 174
299 286 277 261 242 228 236 257 340 332 331 328 34 51 56 93 26 257 300 313 255 174 285 297 270 282 239 216 229 182 153 163 169 237 178 213 159 265 255 206 203 148 192 297 327 6 288 284 283 228 47 17 115 118 138 132 223 140 147 133 84 77 55 215 261 212 310 286 285 126 168 216 242 282 254 240 218 201 188 186 185 183 186 184 177 173 175 175
297 294 280 205 212 221 230 127 212 351 357 349 80 29 44 53 277 238 266 216 231 255 255 260 298 289 292 148 242 125 238 93 162 219 185 243 137 295 321 270 233 264 144 331 53 320 55 356 327 48 6 101 110 167 170 167 172 195 133 139 169 146 160 180 183 170 206 196 304 108 115 235 80 255 262 227 220 183 182 181 178 181 185 185 177 170 172 175
305 290 231 249 243 243 235 220 260 335 323 36 58 83 94 256 238 226 260 279 281 268 272 304 329 324 331 347 244 164 149 236 208 148 200 137 246 158 219 257 221 143 115 69 275 58 166 206 250 207 201 112 27 189 130 123 80 71 162 72 78 232 145 132 204 151 219 131 49 158 212 191 177 256 321 246 133 161 169 162 165 181 173 168 167 173 174 178
309 67 124 212 218 256 185 187 172 190 154 67 77 54 202 194 265 146 262 198 312 25 317 2 35 16 332 323 320 47 1 115 230 166 212 187 171 189 222 226 210 170 159 154 206 81 20 314 254 271 161 135 203 180 201 121 121 257 66 214 215 182 113 82 9 40 83 52 248 213 329 317 302 355 10 13 80 138 166 173 165 180 167 163 173 177 176 177
349 298 334 213 237 155 132 148 154 146 88 95 91 265 210 277 191 157 246 211 274 136 50 56 327 62 360 321 315 7 345 112 319 128 332 192 300 240 235 255 195 165 195 116 337 190 142 248 288 111 208 236 196 161 172 153 133 80 102 234 207 64 105 117 190 338 54 116 259 42 306 307 32 261 326 12 90 141 173 146 198 184 162 173 179 178 180 181
333 302 249 264 198 120 133 149 140 108 80 79 156 223 228 207 291 143 216 115 61 33 93 109 259 97 293 65 319 356 340 92 322 25 263 40 271 245 251 280 205 189 191 138 140 250 114 1 302 285 216 253 60 73 63 357 164 126 202 183 97 324 3 316 88 3 7 355 299 321 321 280 135 280 332 323 149 215 173 91 92 148 177 184 184 184 186 185
263 27 359 317 110 131 137 160 114 85 61 61 266 351 263 202 239 220 214 133 140 121 69 235 157 284 152 343 244 349 23 90 280 64 81 26 60 279 309 358 323 335 217 138 151 226 78 136 302 305 14 347 44 77 192 290 297 278 89 35 285 104 164 120 204 169 117 224 62 287 48 114 249 250 217 248 257 250 249 46 108 141 158 149 162 191 190 182
15 29 301 16 124 125 148 135 59 42 71 165 226 219 231 309 246 260 231 120 201 117 227 136 232 110 256 225 162 328 323 106 208 275 93 211 194 289 15 349 327 326 179 180 165 127 205 128 94 279 333 39 336 88 179 192 138 348 1 308 359 7 208 109 28 86 172 166 161 174 33 302 269 225 220 245 240 247 192 180 190 170 169 161 162 168 185 194
302 115 270 115 139 144 131 50 67 88 187 264 187 247 302 251 242 307 296 155 122 229 142 154 157 194 226 31 354 5 15 19 23 35 358 315 95 343 317 352 324 315 30 142 24 4 81 58 196 297 18 27 240 245 174 183 144 188 175 210 171 105 39 74 274 353 65 91 202 96 252 266 270 251 236 231 246 221 182 186 185 193 202 177 187 183 169 174
61 35 295 160 155 171 91 69 280 209 139 222 249 215 274 345 179 214 205 35 83 267 77 136 186 179 230 116 203 84 112 63 335 60 332 73 291 152 268 328 313 275 98 123 204 214 147 151 97 152 197 201 232 264 197 207 135 199 119 280 156 106 101 101 120 279 21 28 112 151 109 292 253 303 297 272 258 212 177 128 349 309 225 242 222 199 194 178
65 193 261 163 187 174 60 45 276 3 239 236 267 276 267 260 249 200 99 165 323 195 146 195 208 124 294 150 246 59 68 91 21 162 225 252 271 235 289 317 336 42 86 332 2 288 103 71 31 298 312 299 317 23 54 27 72 53 357 45 57 134 177 163 173 186 123 352 20 1 63 262 295 337 348 314 284 346 195 148 169 230 210 222 225 245 235 207
265 264 7 193 205 14 87 221 299 294 294 303 312 283 292 231 173 98 90 213 154 313 161 220 3 81 167 19 83 152 182 76 276 3 331 287 291 287 309 333 353 24 53 223 121 273 59 303 110 24 357 338 343 353 3 349 40 67 308 288 201 170 73 77 99 26 76 301 181 112 60 293 288 338 338 345 36 121 301 247 169 219 250 226 234 243 256 6
300 292 271 200 235 334 260 197 138 224 279 308 307 320 319 330 25 86 77 319 11 327 79 350 206 167 70 194 108 73 207 157 195 291 248 265 257 286 331 360 354 15 48 28 343 345 79 241 84 101 105 71 7 1 343 11 302 283 339 357 18 31 92 96 44 15 79 309 74 95 145 258 282 339 340 330 106 167 276 292 307 222 216 230 265 6 39 71
23 61 301 43 279 241 271 221 172 196 294 309 337 277 289 349 341 351 74 6 24 321 55 223 354 51 75 38 49 4 319 344 125 204 340 303 296 322 346 344 14 26 14 27 7 70 119 62 90 149 141 181 198 214 260 180 53 50 322 66 77 81 60 88 110 73 117 185 70 196 169 327 356 341 334 320 322 219 210 264 278 283 303 317 76 92 147 154
222 88 353 338 347 6 266 334 316 15 247 192 255 305 0 344 304 75 10 198 349 335 324 65 358 30 333 66 60 46 276 325 327 119 192 100 278 260 304 11 344 22 30 20 358 81 54 51 348 118 145 179 194 222 191 203 123 196 106 67 71 86 97 82 102 167 170 85 50 319 145 92 347 335 340 338 335 317 328 281 277 286 276 278 103 148 106 132
49 276 93 190 130 246 17 314 330 319 306 258 325 351 22 353 19 20 330 59 229 48 49 332 25 29 157 174 134 76 322 351 355 3 43 207 10 328 18 332 353 357 35 14 3 95 128 94 283 73 348 3 9 12 113 84 60 74 48 88 80 62 71 97 156 130 102 127 138 104 83 70 333 347 333 339 339 303 241 255 256 236 242 93 123 100 176 179
112 284 291 12 88 263 177 234 358 16 37 22 113 38 37 52 28 342 335 320 20 18 48 1 319 308 318 28 88 189 195 72 308 311 197 316 40 352 354 340 316 9 61 28 6 94 85 17 276 101 51 26 35 62 85 88 80 57 46 38 44 70 67 75 87 75 138 129 129 112 69 86 40 356 342 337 346 25 14 11 360 338 332 13 201 166 217 243
347 44 317 350 355 275 275 308 98 65 58 352 80 313 39 312 111 299 319 66 22 349 23 43 307 301 291 64 102 145 204 178 179 182 256 135 331 102 219 187 239 328 43 44 12 320 103 278 254 33 70 11 15 77 68 87 80 67 29 23 25 53 57 40 54 19 32 51 45 73 107 20 338 2 336 329 357 28 30 19 11 5 351 283 271 261 214 241
269 207 165 342 349 280 322 16 69 83 60 346 82 291 61 329 8 251 241 258 166 132 55 268 291 289 285 208 216 241 249 213 202 210 195 146 171 224 129 285 112 338 348 9 22 324 67 244 52 62 75 352 294 98 115 87 77 63 31 14 9 13 44 7 44 328 49 41 349 46 34 346 317 337 329 343 27 35 29 16 16 4 2 357 321 300 293 233
308 268 26 167 251 292 350 328 23 57 27 246 147 280 143 271 276 223 39 266 148 144 178 243 295 266 290 252 255 241 235 217 230 237 223 224 234 263 183 115 96 146 165 101 266 60 8 96 48 47 83 256 250 148 200 115 34 33 15 348 348 43 91 75 46 33 26 303 54 47 311 276 284 313 343 2 26 34 31 20 3 3 8 19 19 359 332 323